Regional Weather Roundup
Issued by NWS Charleston, WV

Home | Current Version | Previous Version | Graphics & Text | Print | Product List | Glossary On
Versions: 1 2 3 4 5 6 7 8 9 10 11 12 13 14 15 16 17 18 19 20 21 22 23 24 25 26 27 28 29 30 31 32 33 34 35 36 37 38 39 40 41 42 43 44 45 46 47 48 49 50
000
ASUS41 KRLX 140910
RWRRLX
West Virginia Regional Weather Roundup
National Weather Service Charleston WV
400 AM EST SUN FEB 14 2016

Note: "fair" indicates few or no clouds below 12,000 feet with no
significant weather and/or obstructions to visibility.

WVZ003-141000-
Northern Panhandle of West Virginia

CITY           SKY/WX    TMP DP  RH WIND       PRES   REMARKS
WHEELING         N/A      4   0  83 CALM      30.42S
$$

WVZ009-141000-
Northwest West Virginia

CITY           SKY/WX    TMP DP  RH WIND       PRES   REMARKS
PARKERSBURG      N/A      0  -5  79 CALM      30.50S
$$

WVZ006-141000-
Western West Virginia

CITY           SKY/WX    TMP DP  RH WIND       PRES   REMARKS
HUNTINGTON       N/A      9   3  77 E5        30.46F WCI   1
$$

WVZ015-141000-
West Central West Virginia

CITY           SKY/WX    TMP DP  RH WIND       PRES   REMARKS
CHARLESTON       N/A      5   0  79 CALM      30.46F
$$

WVZ022-031-141000-
North Central West Virginia

CITY           SKY/WX    TMP DP  RH WIND       PRES   REMARKS
CLARKSBURG     CLOUDY     6  -4  63 CALM      30.43S
MORGANTOWN     NOT AVBL
$$

WVZ025-035-042-045-141000-
Southern West Virginia

CITY           SKY/WX    TMP DP  RH WIND       PRES   REMARKS
BECKLEY          N/A      1  -6  72 CALM      30.31R
LOGAN            N/A      9  -2  61 CALM      30.39S
BLUEFIELD        N/A      1  -7  68 CALM      30.28R
LEWISBURG        N/A      4  -4  68 CALM      30.33R
$$

WVZ047-141000-
Northern Mountains of West Virginia

CITY           SKY/WX    TMP DP  RH WIND       PRES   REMARKS
ELKINS           N/A     -5 -10  79 CALM      30.36R
$$

WVZ052-141000-
Eastern Panhandle of West Virginia

CITY           SKY/WX    TMP DP  RH WIND       PRES   REMARKS
MARTINSBURG      N/A     10  -4  53 NW13      30.43R WCI  -5
PETERSBURG       N/A     12  -2  53 NW12      30.43R WCI  -2
$$



USA.gov is the U.S. government's official web portal to all federal, state and local government web resources and services.